CW5870 Weather Reports


time (UTC)temp
C
wind
direction
speed
KPH
gust
KPH
rain 1hr
cm
rain 24hr
cm
rain mn
cm
humidity
%
barometer
mb
20190422184007 11 298 4.8 4.8 0.00 0.00 0.00 78 1015.0
20190422183020 11 292 3.2 4.8 0.00 0.00 0.00 78 1015.0
20190422182011 11 312 3.2 3.2 0.00 0.00 0.00 78 1015.0
20190422181010 10 292 1.6 3.2 0.00 0.00 0.00 78 1015.0
20190422180014 11 310 3.2 3.2 0.00 0.00 0.00 78 1015.0
20190422175010 11 302 3.2 3.2 0.00 0.00 0.00 78 1015.0
20190422174010 11 292 1.6 3.2 0.00 0.00 0.00 77 1015.0
20190422173011 11 292 1.6 3.2 0.00 0.00 0.00 76 1015.0
20190422172012 11 292 0.0 0.0 0.00 0.00 0.00 76 1015.0
20190422171012 11 292 0.0 3.2 0.00 0.00 0.00 75 1015.0
20190422170012 11 292 0.0 1.6 0.00 0.00 0.00 75 1015.0
20190422165021 11 292 0.0 1.6 0.00 0.00 0.00 75 1015.0
20190422164011 11 292 0.0 0.0 0.00 0.00 0.00 75 1015.0
20190422163016 11 270 0.0 0.0 0.00 0.00 0.00 75 1015.0
20190422162020 11 158 0.0 0.0 0.00 0.00 0.00 75 1015.0
20190422161012 12 90 0.0 0.0 0.00 0.00 0.00 75 1015.0
20190422160011 12 112 1.6 1.6 0.00 0.00 0.00 75 1016.0
20190422155009 12 112 0.0 3.2 0.00 0.00 0.00 75 1016.0
20190422154010 12 90 0.0 3.2 0.00 0.00 0.00 75 1016.0
20190422153013 12 90 1.6 1.6 0.00 0.00 0.00 75 1016.0
20190422152009 12 100 0.0 3.2 0.00 0.00 0.00 75 1016.0
20190422151010 12 112 3.2 3.2 0.00 0.00 0.00 76 1016.0
20190422150011 12 112 3.2 3.2 0.00 0.00 0.00 75 1016.0
20190422145010 12 104 1.6 3.2 0.00 0.00 0.00 75 1016.0
20190422144015 12 102 1.6 3.2 0.00 0.00 0.00 75 1016.0
20190422143010 12 105 3.2 4.8 0.00 0.00 0.00 75 1016.0
20190422142013 13 82 3.2 4.8 0.00 0.00 0.00 75 1016.0
20190422141011 13 144 4.8 8.0 0.00 0.00 0.00 75 1016.0
20190422140012 13 81 1.6 4.8 0.00 0.00 0.00 75 1016.0
20190422135011 13 112 4.8 8.0 0.00 0.00 0.00 74 1016.0
20190422134012 13 112 3.2 4.8 0.00 0.00 0.00 74 1016.0
20190422133038 13 109 3.2 4.8 0.00 0.00 0.00 74 1016.0
20190422132009 13 112 3.2 3.2 0.00 0.00 0.00 74 1017.0
20190422131011 13 112 3.2 3.2 0.00 0.00 0.00 74 1017.0
20190422130013 13 68 3.2 8.0 0.00 0.00 0.00 74 1017.0
20190422125025 13 95 3.2 3.2 0.00 0.00 0.00 74 1017.0
20190422124010 12 90 0.0 4.8 0.00 0.00 0.00 74 1017.0
20190422123019 12 134 4.8 4.8 0.00 0.00 0.00 74 1017.0
20190422122014 12 112 4.8 4.8 0.00 0.00 0.00 74 1017.0
20190422121013 12 74 1.6 4.8 0.00 0.00 0.00 74 1017.0
20190422120014 12 112 4.8 4.8 0.00 0.00 0.00 74 1017.0
20190422115013 12 112 3.2 4.8 0.00 0.00 0.00 74 1017.0
20190422114010 12 92 4.8 8.0 0.00 0.00 0.00 74 1017.0
20190422113012 12 130 4.8 9.7 0.00 0.00 0.00 73 1017.0
20190422112011 13 158 8.0 8.0 0.00 0.00 0.00 73 1017.0
20190422111010 13 158 4.8 8.0 0.00 0.00 0.00 73 1017.0
20190422110014 13 76 4.8 8.0 0.00 0.00 0.00 73 1017.0
20190422105014 13 118 4.8 8.0 0.00 0.00 0.00 73 1017.0
20190422104008 13 79 4.8 8.0 0.00 0.00 0.00 72 1017.0
20190422103013 13 88 8.0 9.7 0.00 0.00 0.00 72 1017.0
20190422102010 13 158 8.0 9.7 0.00 0.00 0.00 72 1017.0
20190422101014 13 98 8.0 11.3 0.00 0.00 0.00 72 1017.0
20190422100013 13 114 9.7 12.9 0.00 0.00 0.00 71 1016.0
20190422095009 13 138 9.7 14.5 0.00 0.00 0.00 71 1016.0
20190422094010 13 158 8.0 12.9 0.00 0.00 0.00 70 1016.0
20190422093027 13 123 6.4 8.0 0.00 0.00 0.00 70 1016.0
20190422092010 13 145 4.8 8.0 0.00 0.00 0.00 69 1016.0
20190422091011 13 141 8.0 8.0 0.00 0.00 0.00 68 1016.0
20190422090032 14 112 6.4 8.0 0.00 0.00 0.00 67 1016.0
20190422085011 14 112 6.4 9.7 0.00 0.00 0.00 67 1016.0
20190422084025 14 148 4.8 8.0 0.00 0.00 0.00 67 1016.0
20190422083017 14 17 4.8 9.7 0.00 0.00 0.00 67 1016.0
20190422082008 15 136 8.0 9.7 0.00 0.00 0.00 66 1016.0
20190422081019 15 126 6.4 9.7 0.00 0.00 0.00 66 1016.0
20190422080018 15 84 6.4 14.5 0.00 0.00 0.00 65 1016.0
20190422075016 15 94 11.3 12.9 0.00 0.00 0.00 65 1015.0
20190422074024 15 121 8.0 16.1 0.00 0.00 0.00 63 1015.0
20190422073021 15 158 9.7 14.5 0.00 0.00 0.00 62 1015.0
20190422072013 15 167 11.3 12.9 0.00 0.00 0.00 62 1015.0
20190422071016 16 162 12.9 19.3 0.00 0.00 0.00 60 1015.0
20190422070018 16 89 9.7 19.3 0.00 0.00 0.00 59 1015.0
20190422065012 16 158 14.5 16.1 0.00 0.00 0.00 57 1015.0
20190422064015 16 202 16.1 19.3 0.00 0.00 0.00 56 1015.0
20190422063010 16 158 11.3 19.3 0.00 0.00 0.00 55 1015.0
20190422062013 17 140 16.1 19.3 0.00 0.00 0.00 54 1014.0
20190422061014 17 106 9.7 16.1 0.00 0.00 0.00 54 1014.0
20190422060020 17 117 9.7 12.9 0.00 0.00 0.00 53 1015.0
20190422055018 17 112 14.5 16.1 0.00 0.00 0.00 52 1014.0
20190422054012 18 149 9.7 12.9 0.00 0.00 0.00 52 1014.0
20190422053016 18 116 9.7 12.9 0.00 0.00 0.00 52 1015.0
20190422052011 18 112 9.7 14.5 0.00 0.00 0.00 52 1015.0
20190422051012 18 129 11.3 22.5 0.00 0.00 0.00 51 1015.0
20190422050015 18 112 11.3 12.9 0.00 0.00 0.00 51 1014.0
20190422045012 18 99 9.7 12.9 0.00 0.00 0.00 51 1014.0
20190422044035 18 112 11.3 14.5 0.00 0.00 0.00 52 1014.0
20190422043017 18 112 9.7 16.1 0.00 0.00 0.00 52 1014.0
20190422042012 18 158 8.0 19.3 0.00 0.00 0.00 52 1014.0
20190422041011 18 112 14.5 19.3 0.00 0.00 0.00 51 1014.0
20190422040016 18 117 6.4 12.9 0.00 0.00 0.00 52 1014.0
20190422035018 18 128 11.3 16.1 0.00 0.00 0.00 51 1014.0
20190422034030 18 155 14.5 16.1 0.00 0.00 0.00 52 1014.0
20190422033016 18 133 8.0 11.3 0.00 0.00 0.00 50 1015.0
20190422032009 18 152 9.7 14.5 0.00 0.00 0.00 52 1015.0
20190422031011 18 127 12.9 14.5 0.00 0.00 0.00 52 1015.0
20190422030013 18 104 8.0 14.5 0.00 0.00 0.00 52 1014.0
20190422025011 18 134 9.7 16.1 0.00 0.00 0.00 52 1015.0
20190422024009 17 114 6.4 12.9 0.00 0.00 0.00 53 1015.0
20190422023013 17 158 4.8 14.5 0.00 0.00 0.00 52 1015.0
20190422022010 17 46 4.8 4.8 0.00 0.00 0.00 53 1015.0
20190422021011 17 292 3.2 12.9 0.00 0.00 0.00 52 1015.0
20190422020014 17 210 3.2 9.7 0.00 0.00 0.00 54 1014.0
20190422015010 17 147 3.2 9.7 0.00 0.00 0.00 56 1014.0
20190422014011 17 158 8.0 9.7 0.00 0.00 0.00 55 1014.0
20190422013016 17 107 4.8 9.7 0.00 0.00 0.00 56 1014.0
20190422012013 17 159 4.8 9.7 0.00 0.00 0.00 55 1014.0
20190422011027 17 145 1.6 8.0 0.00 0.00 0.00 56 1014.0
20190422010022 16 123 4.8 8.0 0.00 0.00 0.00 57 1014.0
20190422005018 16 130 6.4 9.7 0.00 0.00 0.00 58 1014.0
20190422004011 16 146 4.8 8.0 0.00 0.00 0.00 58 1014.0
20190422003011 16 223 8.0 8.0 0.00 0.00 0.00 59 1014.0
20190422002013 15 310 4.8 8.0 0.00 0.00 0.00 60 1014.0
20190422001011 15 190 1.6 8.0 0.00 0.00 0.00 62 1014.0
20190422000017 15 146 1.6 4.8 0.00 0.00 0.00 66 1014.0
20190421235013 15 327 1.6 8.0 0.00 0.00 0.00 67 1014.0
20190421234011 14 299 8.0 8.0 0.00 0.00 0.00 68 1014.0
20190421233031 14 292 4.8 8.0 0.00 0.00 0.00 68 1014.0
20190421232010 14 299 6.4 9.7 0.00 0.00 0.00 68 1014.0
20190421231011 14 296 3.2 8.0 0.00 0.00 0.00 69 1014.0
20190421230035 13 293 6.4 9.7 0.00 0.00 0.00 69 1014.0
20190421225010 13 298 4.8 8.0 0.00 0.00 0.00 69 1014.0
20190421224014 13 292 4.8 8.0 0.00 0.00 0.00 69 1014.0
20190421223029 13 253 6.4 8.0 0.00 0.00 0.00 68 1014.0
20190421222014 13 295 4.8 8.0 0.00 0.00 0.00 69 1013.0
20190421221014 13 254 4.8 8.0 0.00 0.00 0.00 70 1013.0
20190421220023 13 258 3.2 8.0 0.00 0.00 0.00 71 1013.0
20190421215019 13 260 4.8 8.0 0.00 0.00 0.00 71 1013.0
20190421214015 13 292 4.8 4.8 0.00 0.00 0.00 72 1013.0
20190421213016 13 292 1.6 4.8 0.00 0.00 0.00 72 1013.0
20190421212026 13 315 1.6 4.8 0.00 0.00 0.00 72 1013.0
20190421211015 13 292 3.2 4.8 0.00 0.00 0.00 72 1013.0
20190421210015 13 292 3.2 4.8 0.00 0.00 0.00 72 1013.0
20190421205018 13 292 1.6 4.8 0.00 0.00 0.00 72 1013.0
20190421204011 13 248 4.8 4.8 0.00 0.00 0.00 72 1013.0
20190421203028 13 296 3.2 4.8 0.00 0.00 0.00 72 1013.0
20190421202010 13 253 3.2 4.8 0.00 0.00 0.00 72 1013.0
20190421201026 13 259 4.8 4.8 0.00 0.00 0.00 71 1013.0
20190421200020 13 278 1.6 3.2 0.00 0.00 0.00 71 1013.0
20190421195014 13 292 1.6 3.2 0.00 0.00 0.00 71 1012.0
20190421194027 13 248 3.2 3.2 0.00 0.00 0.00 71 1012.0
20190421193015 13 248 3.2 4.8 0.00 0.00 0.00 71 1012.0
20190421192018 13 312 3.2 4.8 0.00 0.00 0.00 71 1012.0
20190421191013 13 292 3.2 4.8 0.00 0.00 0.00 71 1012.0
20190421190030 13 295 1.6 4.8 0.00 0.00 0.00 71 1012.0
20190421185013 13 292 3.2 4.8 0.00 0.00 0.00 71 1012.0